Time,TemperatureF,DewpointF,PressureIn,WindDirection,WindDirectionDegrees,WindSpeedMPH,WindSpeedGustMPH,Humidity,HourlyPrecipIn,Conditions,Clouds,dailyrainin,SoftwareType,DateUTC
2013-01-12 00:01:00,38.1,34.0,30.20,SE,134,3.0,3.0,85,0.00,,,0.00,Wunderground v.1.15,2013-01-12 05:01:00,
2013-01-12 00:02:00,38.0,33.9,30.20,SE,134,3.0,3.0,85,0.00,,,0.00,Wunderground v.1.15,2013-01-12 05:02:00,
2013-01-12 00:03:00,38.0,33.9,30.20,SE,134,1.0,3.0,85,0.00,,,0.00,Wunderground v.1.15,2013-01-12 05:03:00,
2013-01-12 00:06:00,38.1,34.0,30.20,SE,134,2.0,3.0,85,0.00,,,0.00,Wunderground v.1.15,2013-01-12 05:06:00,
2013-01-12 00:11:00,38.0,33.9,30.20,SE,134,3.0,3.0,85,0.00,,,0.01,Wunderground v.1.15,2013-01-12 05:11:00,
2013-01-12 00:17:00,38.0,33.9,30.19,SE,134,4.0,5.0,85,0.00,,,0.01,Wunderground v.1.15,2013-01-12 05:17:00,
2013-01-12 00:22:00,38.0,33.9,30.19,SE,141,5.0,7.0,85,0.00,,,0.01,Wunderground v.1.15,2013-01-12 05:22:00,
2013-01-12 00:27:00,38.1,34.0,30.19,SSE,164,4.0,7.0,85,0.00,,,0.01,Wunderground v.1.15,2013-01-12 05:27:00,
2013-01-12 00:32:00,38.1,34.0,30.19,SE,140,5.0,5.0,85,0.00,,,0.01,Wunderground v.1.15,2013-01-12 05:32:00,
2013-01-12 00:38:00,38.1,34.0,30.19,SSE,150,4.0,8.0,85,0.00,,,0.01,Wunderground v.1.15,2013-01-12 05:38:00,
2013-01-12 00:43:00,38.1,34.0,30.18,SE,132,7.0,7.0,85,0.00,,,0.01,Wunderground v.1.15,2013-01-12 05:43:00,
2013-01-12 00:48:00,38.1,34.0,30.18,SSE,154,5.0,7.0,85,0.00,,,0.01,Wunderground v.1.15,2013-01-12 05:48:00,
2013-01-12 00:53:00,38.1,34.0,30.18,SE,135,3.0,5.0,85,0.00,,,0.01,Wunderground v.1.15,2013-01-12 05:53:00,
2013-01-12 00:58:00,38.1,34.0,30.18,SSE,161,2.0,5.0,85,0.00,,,0.01,Wunderground v.1.15,2013-01-12 05:58:00,
2013-01-12 01:04:00,38.1,34.3,30.18,SE,128,6.0,6.0,86,0.00,,,0.01,Wunderground v.1.15,2013-01-12 06:04:00,
2013-01-12 01:10:00,38.1,34.3,30.17,SE,125,5.0,5.0,86,0.00,,,0.01,Wunderground v.1.15,2013-01-12 06:10:00,
2013-01-12 01:15:00,38.2,34.4,30.17,SE,132,4.0,5.0,86,0.00,,,0.01,Wunderground v.1.15,2013-01-12 06:15:00,
2013-01-12 01:20:00,38.2,34.4,30.17,ESE,114,5.0,5.0,86,0.00,,,0.01,Wunderground v.1.15,2013-01-12 06:20:00,
2013-01-12 01:25:00,38.1,34.3,30.17,ESE,117,7.0,7.0,86,0.00,,,0.01,Wunderground v.1.15,2013-01-12 06:25:00,
2013-01-12 01:30:00,38.1,34.3,30.17,SE,139,4.0,5.0,86,0.00,,,0.01,Wunderground v.1.15,2013-01-12 06:30:00,
2013-01-12 01:35:00,38.1,34.3,30.17,SE,136,2.0,6.0,86,0.00,,,0.01,Wunderground v.1.15,2013-01-12 06:35:00,
2013-01-12 01:40:00,38.0,34.2,30.17,SE,132,3.0,3.0,86,0.00,,,0.01,Wunderground v.1.15,2013-01-12 06:40:00,
2013-01-12 01:46:00,38.1,34.3,30.17,ESE,122,3.0,4.0,86,0.00,,,0.01,Wunderground v.1.15,2013-01-12 06:46:00,
2013-01-12 01:52:00,38.1,34.3,30.17,ESE,123,4.0,7.0,86,0.00,,,0.01,Wunderground v.1.15,2013-01-12 06:52:00,
2013-01-12 01:57:00,38.1,34.3,30.16,SE,126,4.0,7.0,86,0.00,,,0.01,Wunderground v.1.15,2013-01-12 06:57:00,
2013-01-12 02:02:00,38.1,34.3,30.16,SE,129,7.0,9.0,86,0.00,,,0.01,Wunderground v.1.15,2013-01-12 07:02:00,
2013-01-12 02:07:00,38.1,34.3,30.16,SE,138,3.0,9.0,86,0.00,,,0.01,Wunderground v.1.15,2013-01-12 07:07:00,
2013-01-12 02:12:00,38.1,34.3,30.16,SSE,149,8.0,8.0,86,0.00,,,0.01,Wunderground v.1.15,2013-01-12 07:12:00,
2013-01-12 02:17:00,38.2,34.4,30.16,SE,128,6.0,8.0,86,0.00,,,0.01,Wunderground v.1.15,2013-01-12 07:17:00,
2013-01-12 02:22:00,38.2,34.4,30.16,SSE,148,5.0,7.0,86,0.00,,,0.01,Wunderground v.1.15,2013-01-12 07:22:00,
2013-01-12 02:27:00,38.3,34.5,30.16,SE,134,8.0,9.0,86,0.00,,,0.01,Wunderground v.1.15,2013-01-12 07:27:00,
2013-01-12 02:32:00,38.3,34.5,30.16,ESE,122,5.0,8.0,86,0.00,,,0.01,Wunderground v.1.15,2013-01-12 07:32:00,
2013-01-12 02:37:00,38.3,34.5,30.16,SE,140,3.0,8.0,86,0.00,,,0.01,Wunderground v.1.15,2013-01-12 07:37:00,
2013-01-12 02:42:00,38.3,34.5,30.17,SE,134,4.0,6.0,86,0.00,,,0.01,Wunderground v.1.15,2013-01-12 07:42:00,
2013-01-12 02:47:00,38.3,34.5,30.16,SE,130,4.0,7.0,86,0.00,,,0.01,Wunderground v.1.15,2013-01-12 07:47:00,
2013-01-12 02:52:00,38.4,34.6,30.16,SE,136,3.0,6.0,86,0.00,,,0.01,Wunderground v.1.15,2013-01-12 07:52:00,
2013-01-12 02:57:00,38.4,34.6,30.16,SE,126,5.0,7.0,86,0.00,,,0.01,Wunderground v.1.15,2013-01-12 07:57:00,
2013-01-12 03:02:00,38.4,34.6,30.15,SE,128,5.0,7.0,86,0.00,,,0.01,Wunderground v.1.15,2013-01-12 08:02:00,
2013-01-12 03:07:00,38.5,34.7,30.15,ESE,123,3.0,7.0,86,0.00,,,0.01,Wunderground v.1.15,2013-01-12 08:07:00,
2013-01-12 03:12:00,38.5,34.7,30.15,SE,131,4.0,7.0,86,0.00,,,0.01,Wunderground v.1.15,2013-01-12 08:12:00,
2013-01-12 03:17:00,38.5,34.7,30.14,SE,137,6.0,9.0,86,0.00,,,0.01,Wunderground v.1.15,2013-01-12 08:17:00,
2013-01-12 03:22:00,38.6,34.8,30.14,ESE,113,3.0,9.0,86,0.00,,,0.01,Wunderground v.1.15,2013-01-12 08:22:00,
2013-01-12 03:27:00,38.6,34.8,30.14,ESE,121,2.0,9.0,86,0.00,,,0.01,Wunderground v.1.15,2013-01-12 08:27:00,
2013-01-12 03:32:00,38.6,34.8,30.14,SE,141,6.0,8.0,86,0.00,,,0.01,Wunderground v.1.15,2013-01-12 08:32:00,
2013-01-12 03:37:00,38.7,34.9,30.14,ESE,109,7.0,10.0,86,0.00,,,0.01,Wunderground v.1.15,2013-01-12 08:37:00,
2013-01-12 03:42:00,38.7,35.2,30.13,ESE,110,4.0,8.0,87,0.00,,,0.01,Wunderground v.1.15,2013-01-12 08:42:00,
2013-01-12 03:47:00,38.8,35.3,30.14,SE,134,6.0,8.0,87,0.00,,,0.01,Wunderground v.1.15,2013-01-12 08:47:00,
2013-01-12 03:52:00,38.8,35.3,30.13,SE,143,10.0,10.0,87,0.00,,,0.01,Wunderground v.1.15,2013-01-12 08:52:00,
2013-01-12 03:57:00,38.9,35.4,30.14,SE,144,3.0,10.0,87,0.00,,,0.01,Wunderground v.1.15,2013-01-12 08:57:00,
2013-01-12 04:02:00,38.9,35.4,30.14,SE,134,4.0,7.0,87,0.00,,,0.01,Wunderground v.1.15,2013-01-12 09:02:00,
2013-01-12 04:07:00,38.9,35.4,30.14,SE,129,5.0,7.0,87,0.00,,,0.01,Wunderground v.1.15,2013-01-12 09:07:00,
2013-01-12 04:12:00,38.9,35.4,30.14,SE,139,3.0,5.0,87,0.00,,,0.01,Wunderground v.1.15,2013-01-12 09:12:00,
2013-01-12 04:17:00,38.9,35.4,30.13,SE,137,4.0,6.0,87,0.00,,,0.01,Wunderground v.1.15,2013-01-12 09:17:00,
2013-01-12 04:22:00,38.9,35.4,30.13,SE,144,5.0,7.0,87,0.00,,,0.01,Wunderground v.1.15,2013-01-12 09:22:00,
2013-01-12 04:27:00,38.9,35.4,30.13,SE,143,4.0,7.0,87,0.00,,,0.01,Wunderground v.1.15,2013-01-12 09:27:00,
2013-01-12 04:32:00,38.9,35.4,30.12,SE,129,5.0,6.0,87,0.00,,,0.01,Wunderground v.1.15,2013-01-12 09:32:00,
2013-01-12 04:37:00,38.9,35.4,30.13,SE,134,4.0,6.0,87,0.00,,,0.01,Wunderground v.1.15,2013-01-12 09:37:00,
2013-01-12 04:42:00,39.0,35.5,30.13,SE,127,4.0,4.0,87,0.00,,,0.01,Wunderground v.1.15,2013-01-12 09:42:00,
2013-01-12 04:47:00,39.0,35.5,30.12,SE,132,2.0,6.0,87,0.00,,,0.01,Wunderground v.1.15,2013-01-12 09:47:00,
2013-01-12 04:52:00,39.0,35.5,30.12,ESE,117,2.0,7.0,87,0.00,,,0.01,Wunderground v.1.15,2013-01-12 09:52:00,
2013-01-12 04:57:00,39.0,35.5,30.13,SE,125,2.0,7.0,87,0.00,,,0.01,Wunderground v.1.15,2013-01-12 09:57:00,
2013-01-12 05:02:00,39.1,35.6,30.13,SE,138,1.0,3.0,87,0.00,,,0.01,Wunderground v.1.15,2013-01-12 10:02:00,
2013-01-12 05:07:00,39.0,35.5,30.13,SE,138,2.0,3.0,87,0.00,,,0.01,Wunderground v.1.15,2013-01-12 10:07:00,
2013-01-12 05:12:00,39.0,35.5,30.13,SE,138,3.0,4.0,87,0.00,,,0.01,Wunderground v.1.15,2013-01-12 10:12:00,
2013-01-12 05:17:00,39.0,35.5,30.14,SE,138,1.0,4.0,87,0.00,,,0.01,Wunderground v.1.15,2013-01-12 10:17:00,
2013-01-12 05:22:00,39.0,35.5,30.14,SE,138,0.0,2.0,87,0.00,,,0.01,Wunderground v.1.15,2013-01-12 10:22:00,
2013-01-12 05:27:00,38.9,35.4,30.14,SE,139,0.0,2.0,87,0.00,,,0.01,Wunderground v.1.15,2013-01-12 10:27:00,
2013-01-12 05:32:00,38.9,35.4,30.14,SE,138,0.0,1.0,87,0.00,,,0.01,Wunderground v.1.15,2013-01-12 10:32:00,
2013-01-12 05:37:00,38.9,35.1,30.15,SE,138,0.0,1.0,86,0.00,,,0.01,Wunderground v.1.15,2013-01-12 10:37:00,
2013-01-12 05:42:00,38.9,35.1,30.14,SE,138,0.0,0.0,86,0.00,,,0.01,Wunderground v.1.15,2013-01-12 10:42:00,
2013-01-12 05:47:00,38.9,35.1,30.14,SE,138,0.0,0.0,86,0.00,,,0.01,Wunderground v.1.15,2013-01-12 10:47:00,
2013-01-12 05:52:00,38.8,35.3,30.13,SE,138,1.0,3.0,87,0.00,,,0.01,Wunderground v.1.15,2013-01-12 10:52:00,
2013-01-12 05:58:00,38.8,35.3,30.13,SE,138,3.0,3.0,87,0.00,,,0.01,Wunderground v.1.15,2013-01-12 10:58:00,
2013-01-12 06:03:00,38.9,35.4,30.13,SE,138,3.0,4.0,87,0.00,,,0.01,Wunderground v.1.15,2013-01-12 11:03:00,
2013-01-12 06:08:00,39.0,35.5,30.13,SE,137,2.0,4.0,87,0.00,,,0.01,Wunderground v.1.15,2013-01-12 11:08:00,
2013-01-12 06:13:00,39.0,35.5,30.12,SE,136,4.0,4.0,87,0.00,,,0.01,Wunderground v.1.15,2013-01-12 11:13:00,
2013-01-12 06:18:00,39.1,35.6,30.12,SE,135,2.0,4.0,87,0.00,,,0.01,Wunderground v.1.15,2013-01-12 11:18:00,
2013-01-12 06:23:00,39.1,35.6,30.12,SE,135,2.0,3.0,87,0.00,,,0.01,Wunderground v.1.15,2013-01-12 11:23:00,
2013-01-12 06:28:00,39.1,35.6,30.13,SE,135,0.0,3.0,87,0.00,,,0.01,Wunderground v.1.15,2013-01-12 11:28:00,
2013-01-12 06:33:00,39.1,35.6,30.13,SE,136,0.0,2.0,87,0.00,,,0.01,Wunderground v.1.15,2013-01-12 11:33:00,
2013-01-12 06:38:00,39.1,35.6,30.13,SE,136,0.0,2.0,87,0.00,,,0.01,Wunderground v.1.15,2013-01-12 11:38:00,
2013-01-12 06:43:00,39.1,35.6,30.13,SE,135,2.0,3.0,87,0.00,,,0.01,Wunderground v.1.15,2013-01-12 11:43:00,
2013-01-12 06:48:00,39.1,35.6,30.13,SE,134,4.0,4.0,87,0.00,,,0.01,Wunderground v.1.15,2013-01-12 11:48:00,
2013-01-12 06:53:00,39.1,35.6,30.13,SE,132,0.0,1.0,87,0.00,,,0.01,Wunderground v.1.15,2013-01-12 11:53:00,
2013-01-12 06:58:00,39.1,35.6,30.13,SE,133,2.0,3.0,87,0.00,,,0.01,Wunderground v.1.15,2013-01-12 11:58:00,
2013-01-12 07:03:00,39.2,35.7,30.14,SE,133,0.0,1.0,87,0.00,,,0.01,Wunderground v.1.15,2013-01-12 12:03:00,
2013-01-12 07:08:00,39.1,35.6,30.14,SE,132,0.0,1.0,87,0.00,,,0.01,Wunderground v.1.15,2013-01-12 12:08:00,
2013-01-12 07:13:00,39.1,35.6,30.14,SE,133,0.0,0.0,87,0.00,,,0.01,Wunderground v.1.15,2013-01-12 12:13:00,
2013-01-12 07:18:00,39.1,35.6,30.14,SE,133,0.0,0.0,87,0.00,,,0.01,Wunderground v.1.15,2013-01-12 12:18:00,
2013-01-12 07:23:00,39.1,35.6,30.14,SE,133,0.0,0.0,87,0.00,,,0.01,Wunderground v.1.15,2013-01-12 12:23:00,
2013-01-12 07:28:00,39.1,35.6,30.15,SE,133,2.0,2.0,87,0.00,,,0.01,Wunderground v.1.15,2013-01-12 12:28:00,
2013-01-12 07:33:00,39.1,35.6,30.15,SE,133,0.0,0.0,87,0.00,,,0.02,Wunderground v.1.15,2013-01-12 12:33:00,
2013-01-12 07:38:00,39.1,35.6,30.16,SE,132,0.0,0.0,87,0.00,,,0.02,Wunderground v.1.15,2013-01-12 12:38:00,
2013-01-12 07:43:00,39.1,35.6,30.16,SE,133,0.0,0.0,87,0.00,,,0.02,Wunderground v.1.15,2013-01-12 12:43:00,
2013-01-12 07:48:00,39.1,35.6,30.16,SE,133,0.0,0.0,87,0.00,,,0.02,Wunderground v.1.15,2013-01-12 12:48:00,
2013-01-12 07:53:00,39.1,35.6,30.16,SE,132,0.0,0.0,87,0.00,,,0.02,Wunderground v.1.15,2013-01-12 12:53:00,
2013-01-12 07:58:00,39.1,35.6,30.16,SE,133,0.0,1.0,87,0.00,,,0.02,Wunderground v.1.15,2013-01-12 12:58:00,
2013-01-12 08:03:00,39.1,35.6,30.16,SE,133,0.0,0.0,87,0.00,,,0.02,Wunderground v.1.15,2013-01-12 13:03:00,
2013-01-12 08:08:00,39.1,35.6,30.15,SE,133,0.0,0.0,87,0.00,,,0.02,Wunderground v.1.15,2013-01-12 13:08:00,
2013-01-12 08:13:00,39.1,35.6,30.15,SE,132,0.0,0.0,87,0.00,,,0.02,Wunderground v.1.15,2013-01-12 13:13:00,
2013-01-12 08:18:00,39.2,35.7,30.15,SE,133,0.0,0.0,87,0.00,,,0.02,Wunderground v.1.15,2013-01-12 13:18:00,
2013-01-12 08:23:00,39.2,35.7,30.14,SE,132,0.0,0.0,87,0.00,,,0.02,Wunderground v.1.15,2013-01-12 13:23:00,
2013-01-12 08:28:00,39.4,35.9,30.14,SE,133,0.0,0.0,87,0.00,,,0.02,Wunderground v.1.15,2013-01-12 13:28:00,
2013-01-12 08:33:00,39.5,36.0,30.14,SE,133,0.0,0.0,87,0.00,,,0.02,Wunderground v.1.15,2013-01-12 13:33:00,
2013-01-12 08:38:00,39.6,36.0,30.15,SE,133,0.0,0.0,87,0.00,,,0.02,Wunderground v.1.15,2013-01-12 13:38:00,
2013-01-12 08:43:00,39.8,36.2,30.15,SE,133,0.0,0.0,87,0.00,,,0.02,Wunderground v.1.15,2013-01-12 13:43:00,
2013-01-12 08:48:00,39.9,36.3,30.16,SE,132,1.0,2.0,87,0.00,,,0.02,Wunderground v.1.15,2013-01-12 13:48:00,
2013-01-12 08:53:00,40.1,36.5,30.16,SW,229,3.0,4.0,87,0.00,,,0.02,Wunderground v.1.15,2013-01-12 13:53:00,
2013-01-12 08:58:00,40.1,36.5,30.17,NW,306,3.0,5.0,87,0.00,,,0.02,Wunderground v.1.15,2013-01-12 13:58:00,
2013-01-12 09:03:00,40.2,36.6,30.17,NNW,327,2.0,4.0,87,0.00,,,0.02,Wunderground v.1.15,2013-01-12 14:03:00,
2013-01-12 09:08:00,40.2,36.6,30.17,NNW,327,2.0,4.0,87,0.00,,,0.02,Wunderground v.1.15,2013-01-12 14:08:00,
2013-01-12 09:13:00,40.1,36.5,30.16,NNW,344,2.0,4.0,87,0.00,,,0.02,Wunderground v.1.15,2013-01-12 14:13:00,
2013-01-12 09:18:00,40.2,36.6,30.16,NNW,344,2.0,4.0,87,0.00,,,0.02,Wunderground v.1.15,2013-01-12 14:18:00,
2013-01-12 09:23:00,40.2,36.6,30.16,NNW,344,2.0,3.0,87,0.00,,,0.02,Wunderground v.1.15,2013-01-12 14:23:00,
2013-01-12 09:28:00,40.2,36.6,30.16,NNW,344,3.0,4.0,87,0.00,,,0.02,Wunderground v.1.15,2013-01-12 14:28:00,
2013-01-12 09:33:00,40.3,36.7,30.16,NNW,346,4.0,5.0,87,0.00,,,0.02,Wunderground v.1.15,2013-01-12 14:33:00,
2013-01-12 09:38:00,40.4,36.8,30.16,NNW,346,0.0,5.0,87,0.00,,,0.02,Wunderground v.1.15,2013-01-12 14:38:00,
2013-01-12 09:43:00,40.4,36.8,30.16,NNW,346,3.0,3.0,87,0.00,,,0.02,Wunderground v.1.15,2013-01-12 14:43:00,
2013-01-12 09:48:00,40.4,36.8,30.16,NNW,346,2.0,3.0,87,0.00,,,0.02,Wunderground v.1.15,2013-01-12 14:48:00,
2013-01-12 09:53:00,40.6,37.3,30.17,NNW,334,2.0,4.0,88,0.00,,,0.02,Wunderground v.1.15,2013-01-12 14:53:00,
2013-01-12 09:58:00,40.7,37.4,30.16,NNW,346,1.0,4.0,88,0.00,,,0.02,Wunderground v.1.15,2013-01-12 14:58:00,
2013-01-12 10:03:00,40.7,37.1,30.16,NNW,347,0.0,2.0,87,0.00,,,0.02,Wunderground v.1.15,2013-01-12 15:03:00,
2013-01-12 10:08:00,40.8,37.2,30.16,NNW,347,0.0,2.0,87,0.00,,,0.02,Wunderground v.1.15,2013-01-12 15:08:00,
2013-01-12 10:13:00,40.9,37.3,30.15,NNW,346,0.0,0.0,87,0.00,,,0.02,Wunderground v.1.15,2013-01-12 15:13:00,
2013-01-12 10:18:00,41.1,37.5,30.16,NNW,347,1.0,1.0,87,0.00,,,0.02,Wunderground v.1.15,2013-01-12 15:18:00,
2013-01-12 10:23:00,41.1,37.5,30.15,NNW,346,2.0,2.0,87,0.00,,,0.02,Wunderground v.1.15,2013-01-12 15:23:00,
2013-01-12 10:28:00,41.2,37.9,30.16,NNW,336,2.0,4.0,88,0.00,,,0.02,Wunderground v.1.15,2013-01-12 15:28:00,
2013-01-12 10:33:00,41.2,37.9,30.15,NNW,334,0.0,3.0,88,0.00,,,0.02,Wunderground v.1.15,2013-01-12 15:33:00,
2013-01-12 10:38:00,41.2,37.9,30.15,NNW,334,2.0,4.0,88,0.00,,,0.02,Wunderground v.1.15,2013-01-12 15:38:00,
2013-01-12 10:43:00,41.2,37.9,30.15,WNW,296,2.0,6.0,88,0.00,,,0.02,Wunderground v.1.15,2013-01-12 15:43:00,
2013-01-12 10:48:00,41.1,37.5,30.14,WNW,302,2.0,6.0,87,0.00,,,0.02,Wunderground v.1.15,2013-01-12 15:48:00,
2013-01-12 10:53:00,41.1,37.5,30.15,WNW,302,2.0,3.0,87,0.00,,,0.02,Wunderground v.1.15,2013-01-12 15:53:00,
2013-01-12 10:58:00,41.1,37.5,30.15,WNW,301,1.0,5.0,87,0.00,,,0.02,Wunderground v.1.15,2013-01-12 15:58:00,
2013-01-12 11:03:00,41.1,37.5,30.14,NW,304,3.0,4.0,87,0.00,,,0.02,Wunderground v.1.15,2013-01-12 16:03:00,
2013-01-12 11:08:00,41.1,37.5,30.15,NNW,329,2.0,5.0,87,0.00,,,0.02,Wunderground v.1.15,2013-01-12 16:08:00,
2013-01-12 11:13:00,41.2,37.6,30.15,NNW,330,1.0,6.0,87,0.00,,,0.02,Wunderground v.1.15,2013-01-12 16:13:00,
2013-01-12 11:18:00,41.2,37.6,30.14,NW,314,0.0,6.0,87,0.00,,,0.02,Wunderground v.1.15,2013-01-12 16:18:00,
2013-01-12 11:23:00,41.2,37.6,30.12,North,355,2.0,2.0,87,0.00,,,0.02,Wunderground v.1.15,2013-01-12 16:23:00,
2013-01-12 11:28:00,41.3,37.7,30.13,North,355,2.0,3.0,87,0.00,,,0.02,Wunderground v.1.15,2013-01-12 16:28:00,
2013-01-12 11:33:00,41.4,38.1,30.13,North,355,0.0,1.0,88,0.00,,,0.02,Wunderground v.1.15,2013-01-12 16:33:00,
2013-01-12 11:38:00,41.5,37.9,30.12,North,355,0.0,1.0,87,0.00,,,0.02,Wunderground v.1.15,2013-01-12 16:38:00,
2013-01-12 11:43:00,41.7,38.1,30.12,North,355,0.0,0.0,87,0.00,,,0.02,Wunderground v.1.15,2013-01-12 16:43:00,
2013-01-12 11:48:00,41.8,38.2,30.12,North,355,0.0,0.0,87,0.00,,,0.02,Wunderground v.1.15,2013-01-12 16:48:00,
2013-01-12 11:53:00,41.9,38.6,30.10,East,96,5.0,6.0,88,0.00,,,0.02,Wunderground v.1.15,2013-01-12 16:53:00,
2013-01-12 11:58:00,42.2,38.9,30.11,East,97,0.0,6.0,88,0.00,,,0.02,Wunderground v.1.15,2013-01-12 16:58:00,
2013-01-12 12:03:00,42.3,39.0,30.10,East,97,2.0,3.0,88,0.00,,,0.02,Wunderground v.1.15,2013-01-12 17:03:00,
2013-01-12 12:08:00,42.3,39.0,30.09,SE,124,3.0,5.0,88,0.00,,,0.02,Wunderground v.1.15,2013-01-12 17:08:00,
2013-01-12 12:13:00,42.4,39.1,30.10,SE,125,0.0,2.0,88,0.00,,,0.02,Wunderground v.1.15,2013-01-12 17:13:00,
2013-01-12 12:18:00,42.4,39.1,30.11,SE,125,0.0,2.0,88,0.00,,,0.02,Wunderground v.1.15,2013-01-12 17:18:00,
2013-01-12 12:23:00,42.4,39.1,30.10,SE,125,3.0,4.0,88,0.00,,,0.02,Wunderground v.1.15,2013-01-12 17:23:00,
2013-01-12 12:28:00,42.5,39.2,30.10,SE,125,2.0,4.0,88,0.00,,,0.02,Wunderground v.1.15,2013-01-12 17:28:00,
2013-01-12 12:33:00,42.6,39.3,30.10,SE,125,0.0,2.0,88,0.00,,,0.02,Wunderground v.1.15,2013-01-12 17:33:00,
2013-01-12 12:38:00,42.7,39.4,30.10,SE,125,0.0,4.0,88,0.00,,,0.02,Wunderground v.1.15,2013-01-12 17:38:00,
2013-01-12 12:43:00,42.7,39.4,30.10,SE,125,0.0,2.0,88,0.00,,,0.02,Wunderground v.1.15,2013-01-12 17:43:00,
2013-01-12 12:48:00,42.8,39.2,30.10,SE,125,0.0,2.0,87,0.00,,,0.02,Wunderground v.1.15,2013-01-12 17:48:00,
2013-01-12 12:53:00,42.9,39.3,30.09,ESE,122,4.0,7.0,87,0.00,,,0.02,Wunderground v.1.15,2013-01-12 17:53:00,
2013-01-12 12:58:00,42.9,39.6,30.10,ESE,123,2.0,7.0,88,0.00,,,0.02,Wunderground v.1.15,2013-01-12 17:58:00,
2013-01-12 13:03:00,43.0,39.7,30.11,ESE,123,4.0,4.0,88,0.00,,,0.02,Wunderground v.1.15,2013-01-12 18:03:00,
2013-01-12 13:09:00,43.0,39.7,30.11,ESE,123,1.0,4.0,88,0.00,,,0.02,Wunderground v.1.15,2013-01-12 18:09:00,
2013-01-12 13:14:00,43.1,39.8,30.10,ESE,123,3.0,4.0,88,0.00,,,0.02,Wunderground v.1.15,2013-01-12 18:14:00,
2013-01-12 13:19:00,43.2,39.9,30.10,ESE,122,1.0,5.0,88,0.00,,,0.02,Wunderground v.1.15,2013-01-12 18:19:00,
2013-01-12 13:24:00,43.3,40.0,30.10,ESE,122,3.0,4.0,88,0.00,,,0.02,Wunderground v.1.15,2013-01-12 18:24:00,
2013-01-12 13:29:00,43.4,39.8,30.10,ESE,121,3.0,4.0,87,0.00,,,0.02,Wunderground v.1.15,2013-01-12 18:29:00,
2013-01-12 13:34:00,43.4,40.1,30.11,ESE,122,0.0,3.0,88,0.00,,,0.02,Wunderground v.1.15,2013-01-12 18:34:00,
2013-01-12 13:39:00,43.3,39.7,30.11,ESE,121,2.0,3.0,87,0.00,,,0.02,Wunderground v.1.15,2013-01-12 18:39:00,
2013-01-12 13:44:00,43.4,39.8,30.11,ESE,121,0.0,2.0,87,0.00,,,0.02,Wunderground v.1.15,2013-01-12 18:44:00,
2013-01-12 13:49:00,43.3,39.7,30.12,ESE,121,2.0,2.0,87,0.00,,,0.02,Wunderground v.1.15,2013-01-12 18:49:00,
2013-01-12 13:54:00,43.3,39.7,30.13,ESE,121,0.0,2.0,87,0.00,,,0.02,Wunderground v.1.15,2013-01-12 18:54:00,
2013-01-12 13:59:00,43.3,39.7,30.13,North,349,4.0,4.0,87,0.00,,,0.02,Wunderground v.1.15,2013-01-12 18:59:00,
2013-01-12 14:04:00,43.2,39.6,30.13,WNW,302,2.0,4.0,87,0.00,,,0.02,Wunderground v.1.15,2013-01-12 19:04:00,
2013-01-12 14:09:00,43.1,39.5,30.13,WNW,283,1.0,4.0,87,0.00,,,0.02,Wunderground v.1.15,2013-01-12 19:09:00,
2013-01-12 14:14:00,43.1,39.5,30.12,WNW,283,0.0,2.0,87,0.00,,,0.02,Wunderground v.1.15,2013-01-12 19:14:00,
2013-01-12 14:19:00,43.2,39.6,30.12,WNW,283,0.0,2.0,87,0.00,,,0.02,Wunderground v.1.15,2013-01-12 19:19:00,
2013-01-12 14:24:00,43.3,39.7,30.12,WNW,283,2.0,2.0,87,0.00,,,0.02,Wunderground v.1.15,2013-01-12 19:24:00,
2013-01-12 14:29:00,43.3,39.7,30.12,WNW,283,0.0,2.0,87,0.00,,,0.02,Wunderground v.1.15,2013-01-12 19:29:00,
2013-01-12 14:34:00,43.4,39.8,30.12,WNW,283,0.0,2.0,87,0.00,,,0.02,Wunderground v.1.15,2013-01-12 19:34:00,
2013-01-12 14:39:00,43.5,39.9,30.12,WNW,283,1.0,2.0,87,0.00,,,0.02,Wunderground v.1.15,2013-01-12 19:39:00,
2013-01-12 14:44:00,43.5,39.9,30.12,WNW,283,2.0,2.0,87,0.00,,,0.02,Wunderground v.1.15,2013-01-12 19:44:00,
2013-01-12 14:49:00,43.5,39.9,30.12,WNW,283,0.0,3.0,87,0.00,,,0.02,Wunderground v.1.15,2013-01-12 19:49:00,
2013-01-12 14:54:00,43.5,39.9,30.12,WNW,283,0.0,2.0,87,0.00,,,0.02,Wunderground v.1.15,2013-01-12 19:54:00,
2013-01-12 14:59:00,43.5,39.9,30.12,WNW,283,0.0,2.0,87,0.00,,,0.02,Wunderground v.1.15,2013-01-12 19:59:00,
2013-01-12 15:04:00,43.5,39.9,30.12,WNW,283,0.0,0.0,87,0.00,,,0.02,Wunderground v.1.15,2013-01-12 20:04:00,
2013-01-12 15:10:00,43.6,40.0,30.12,WNW,283,0.0,0.0,87,0.00,,,0.02,Wunderground v.1.15,2013-01-12 20:10:00,
2013-01-12 15:15:00,43.6,40.0,30.12,WNW,283,0.0,0.0,87,0.00,,,0.02,Wunderground v.1.15,2013-01-12 20:15:00,
2013-01-12 15:20:00,43.6,40.0,30.13,WNW,283,1.0,1.0,87,0.00,,,0.02,Wunderground v.1.15,2013-01-12 20:20:00,
2013-01-12 15:25:00,43.6,40.0,30.12,WNW,283,0.0,1.0,87,0.00,,,0.02,Wunderground v.1.15,2013-01-12 20:25:00,
2013-01-12 15:30:00,43.6,40.0,30.12,WNW,283,0.0,1.0,87,0.00,,,0.02,Wunderground v.1.15,2013-01-12 20:30:00,
2013-01-12 15:35:00,43.6,40.0,30.12,WNW,283,0.0,3.0,87,0.00,,,0.02,Wunderground v.1.15,2013-01-12 20:35:00,
2013-01-12 15:40:00,43.6,40.0,30.13,WNW,283,2.0,2.0,87,0.00,,,0.02,Wunderground v.1.15,2013-01-12 20:40:00,
2013-01-12 15:45:00,43.5,39.9,30.12,WNW,284,0.0,3.0,87,0.00,,,0.02,Wunderground v.1.15,2013-01-12 20:45:00,
2013-01-12 15:50:00,43.4,39.8,30.12,WNW,284,0.0,1.0,87,0.00,,,0.02,Wunderground v.1.15,2013-01-12 20:50:00,
2013-01-12 15:55:00,43.4,39.8,30.12,WNW,284,1.0,2.0,87,0.00,,,0.02,Wunderground v.1.15,2013-01-12 20:55:00,
2013-01-12 16:00:00,43.3,39.7,30.12,WNW,284,0.0,1.0,87,0.00,,,0.02,Wunderground v.1.15,2013-01-12 21:00:00,
2013-01-12 16:05:00,43.3,39.7,30.12,WNW,284,0.0,2.0,87,0.00,,,0.02,Wunderground v.1.15,2013-01-12 21:05:00,
2013-01-12 16:10:00,43.2,39.6,30.12,WNW,284,0.0,0.0,87,0.00,,,0.02,Wunderground v.1.15,2013-01-12 21:10:00,
2013-01-12 16:15:00,43.2,39.6,30.12,WNW,284,0.0,1.0,87,0.00,,,0.02,Wunderground v.1.15,2013-01-12 21:15:00,
2013-01-12 16:20:00,43.1,39.5,30.12,WNW,284,0.0,0.0,87,0.00,,,0.02,Wunderground v.1.15,2013-01-12 21:20:00,
2013-01-12 16:25:00,43.1,39.5,30.12,WNW,284,0.0,2.0,87,0.00,,,0.02,Wunderground v.1.15,2013-01-12 21:25:00,
2013-01-12 16:30:00,43.0,39.4,30.12,WNW,284,0.0,0.0,87,0.00,,,0.02,Wunderground v.1.15,2013-01-12 21:30:00,
2013-01-12 16:35:00,42.9,39.3,30.11,WNW,283,0.0,0.0,87,0.00,,,0.02,Wunderground v.1.15,2013-01-12 21:35:00,
2013-01-12 16:40:00,42.9,39.3,30.11,WNW,284,0.0,0.0,87,0.00,,,0.02,Wunderground v.1.15,2013-01-12 21:40:00,
2013-01-12 16:45:00,42.8,39.2,30.11,WNW,284,0.0,1.0,87,0.00,,,0.02,Wunderground v.1.15,2013-01-12 21:45:00,
2013-01-12 16:50:00,42.8,39.2,30.11,WNW,284,0.0,0.0,87,0.00,,,0.02,Wunderground v.1.15,2013-01-12 21:50:00,
2013-01-12 16:55:00,42.8,39.2,30.11,WNW,284,1.0,2.0,87,0.00,,,0.02,Wunderground v.1.15,2013-01-12 21:55:00,
2013-01-12 17:00:00,42.7,39.1,30.11,WNW,283,0.0,0.0,87,0.00,,,0.02,Wunderground v.1.15,2013-01-12 22:00:00,
2013-01-12 17:05:00,42.8,39.2,30.12,WNW,284,2.0,3.0,87,0.00,,,0.02,Wunderground v.1.15,2013-01-12 22:05:00,
2013-01-12 17:10:00,42.9,39.3,30.12,WNW,289,2.0,3.0,87,0.00,,,0.02,Wunderground v.1.15,2013-01-12 22:10:00,
2013-01-12 17:15:00,42.9,39.3,30.12,WNW,299,2.0,5.0,87,0.00,,,0.02,Wunderground v.1.15,2013-01-12 22:15:00,
2013-01-12 17:20:00,43.0,39.4,30.12,WNW,290,1.0,3.0,87,0.00,,,0.02,Wunderground v.1.15,2013-01-12 22:20:00,
2013-01-12 17:25:00,42.9,39.3,30.12,WNW,290,1.0,3.0,87,0.00,,,0.02,Wunderground v.1.15,2013-01-12 22:25:00,
2013-01-12 17:30:00,42.9,39.3,30.12,WNW,290,2.0,3.0,87,0.00,,,0.02,Wunderground v.1.15,2013-01-12 22:30:00,
2013-01-12 17:35:00,42.9,39.3,30.12,WNW,294,2.0,4.0,87,0.00,,,0.02,Wunderground v.1.15,2013-01-12 22:35:00,
2013-01-12 17:40:00,42.9,39.3,30.12,WNW,294,0.0,2.0,87,0.00,,,0.02,Wunderground v.1.15,2013-01-12 22:40:00,
2013-01-12 17:45:00,42.9,39.3,30.13,West,277,2.0,5.0,87,0.00,,,0.02,Wunderground v.1.15,2013-01-12 22:45:00,
2013-01-12 17:50:00,42.8,39.2,30.12,West,261,1.0,5.0,87,0.00,,,0.02,Wunderground v.1.15,2013-01-12 22:50:00,
2013-01-12 17:55:00,42.7,39.1,30.13,WNW,284,2.0,5.0,87,0.00,,,0.02,Wunderground v.1.15,2013-01-12 22:55:00,
2013-01-12 18:00:00,42.5,38.9,30.12,NW,326,1.0,3.0,87,0.00,,,0.02,Wunderground v.1.15,2013-01-12 23:00:00,
2013-01-12 18:05:00,42.4,38.8,30.12,NW,326,0.0,3.0,87,0.00,,,0.02,Wunderground v.1.15,2013-01-12 23:05:00,
2013-01-12 18:10:00,42.3,38.7,30.12,NW,316,1.0,2.0,87,0.00,,,0.02,Wunderground v.1.15,2013-01-12 23:10:00,
2013-01-12 18:15:00,42.2,38.6,30.13,WNW,298,1.0,3.0,87,0.00,,,0.02,Wunderground v.1.15,2013-01-12 23:15:00,
2013-01-12 18:21:00,42.2,38.6,30.13,WNW,288,1.0,2.0,87,0.00,,,0.02,Wunderground v.1.15,2013-01-12 23:21:00,
2013-01-12 18:25:00,42.1,38.5,30.12,WNW,288,1.0,3.0,87,0.00,,,0.02,Wunderground v.1.15,2013-01-12 23:25:00,
2013-01-12 18:31:00,42.1,38.5,30.12,WNW,287,0.0,1.0,87,0.00,,,0.02,Wunderground v.1.15,2013-01-12 23:31:00,
2013-01-12 18:36:00,42.0,38.4,30.12,WNW,288,0.0,2.0,87,0.00,,,0.02,Wunderground v.1.15,2013-01-12 23:36:00,
2013-01-12 18:41:00,42.0,38.4,30.11,WNW,288,0.0,0.0,87,0.00,,,0.02,Wunderground v.1.15,2013-01-12 23:41:00,
2013-01-12 18:46:00,42.0,38.4,30.11,WNW,288,0.0,0.0,87,0.00,,,0.02,Wunderground v.1.15,2013-01-12 23:46:00,
2013-01-12 18:51:00,42.0,38.4,30.11,WNW,288,0.0,0.0,87,0.00,,,0.02,Wunderground v.1.15,2013-01-12 23:51:00,
2013-01-12 18:56:00,41.9,38.3,30.11,WNW,288,0.0,0.0,87,0.00,,,0.02,Wunderground v.1.15,2013-01-12 23:56:00,
2013-01-12 19:01:00,41.9,38.3,30.11,WNW,288,0.0,0.0,87,0.00,,,0.02,Wunderground v.1.15,2013-01-13 00:01:00,
2013-01-12 19:06:00,41.8,38.2,30.11,WNW,288,0.0,0.0,87,0.00,,,0.02,Wunderground v.1.15,2013-01-13 00:06:00,
2013-01-12 19:11:00,41.8,38.2,30.11,WNW,288,0.0,2.0,87,0.00,,,0.02,Wunderground v.1.15,2013-01-13 00:11:00,
2013-01-12 19:16:00,41.8,38.2,30.11,WNW,288,0.0,2.0,87,0.00,,,0.02,Wunderground v.1.15,2013-01-13 00:16:00,
2013-01-12 19:21:00,41.9,38.3,30.11,WNW,287,2.0,2.0,87,0.00,,,0.02,Wunderground v.1.15,2013-01-13 00:21:00,
2013-01-12 19:26:00,42.0,38.4,30.11,WNW,288,2.0,3.0,87,0.00,,,0.02,Wunderground v.1.15,2013-01-13 00:26:00,
2013-01-12 19:31:00,42.1,38.5,30.11,WNW,286,1.0,1.0,87,0.00,,,0.02,Wunderground v.1.15,2013-01-13 00:31:00,
2013-01-12 19:36:00,42.2,38.6,30.11,WNW,286,0.0,3.0,87,0.00,,,0.02,Wunderground v.1.15,2013-01-13 00:36:00,
2013-01-12 19:41:00,42.2,38.6,30.11,WNW,286,0.0,1.0,87,0.00,,,0.02,Wunderground v.1.15,2013-01-13 00:41:00,
2013-01-12 19:46:00,42.2,38.6,30.11,WNW,286,0.0,2.0,87,0.00,,,0.02,Wunderground v.1.15,2013-01-13 00:46:00,
2013-01-12 19:51:00,42.2,38.6,30.11,WNW,286,0.0,0.0,87,0.00,,,0.02,Wunderground v.1.15,2013-01-13 00:51:00,
2013-01-12 19:56:00,42.2,38.6,30.11,WNW,286,0.0,3.0,87,0.00,,,0.02,Wunderground v.1.15,2013-01-13 00:56:00,
2013-01-12 20:01:00,42.2,38.6,30.11,WNW,286,0.0,0.0,87,0.00,,,0.02,Wunderground v.1.15,2013-01-13 01:01:00,
2013-01-12 20:06:00,42.1,38.5,30.11,WNW,286,0.0,0.0,87,0.00,,,0.02,Wunderground v.1.15,2013-01-13 01:06:00,
2013-01-12 20:12:00,42.1,38.5,30.11,WNW,286,0.0,0.0,87,0.00,,,0.02,Wunderground v.1.15,2013-01-13 01:12:00,
2013-01-12 20:17:00,42.1,38.5,30.11,WNW,286,0.0,1.0,87,0.00,,,0.02,Wunderground v.1.15,2013-01-13 01:17:00,
2013-01-12 20:22:00,42.1,38.5,30.11,WNW,286,0.0,0.0,87,0.00,,,0.02,Wunderground v.1.15,2013-01-13 01:22:00,
2013-01-12 20:27:00,42.0,38.4,30.11,WNW,286,0.0,0.0,87,0.00,,,0.02,Wunderground v.1.15,2013-01-13 01:27:00,
2013-01-12 20:32:00,42.0,38.4,30.11,WNW,286,0.0,0.0,87,0.00,,,0.02,Wunderground v.1.15,2013-01-13 01:32:00,
2013-01-12 20:37:00,42.0,38.4,30.11,WNW,286,0.0,0.0,87,0.00,,,0.02,Wunderground v.1.15,2013-01-13 01:37:00,
2013-01-12 20:42:00,42.0,38.4,30.12,WNW,286,0.0,0.0,87,0.00,,,0.02,Wunderground v.1.15,2013-01-13 01:42:00,
2013-01-12 20:47:00,42.0,38.4,30.12,WNW,286,2.0,2.0,87,0.00,,,0.02,Wunderground v.1.15,2013-01-13 01:47:00,
2013-01-12 20:52:00,41.9,38.6,30.12,WNW,286,1.0,3.0,88,0.00,,,0.02,Wunderground v.1.15,2013-01-13 01:52:00,
2013-01-12 20:57:00,41.9,38.6,30.12,WNW,286,0.0,3.0,88,0.00,,,0.02,Wunderground v.1.15,2013-01-13 01:57:00,
2013-01-12 21:02:00,42.0,38.7,30.12,WNW,286,0.0,1.0,88,0.00,,,0.02,Wunderground v.1.15,2013-01-13 02:02:00,
2013-01-12 21:07:00,42.0,38.4,30.11,WNW,286,0.0,1.0,87,0.00,,,0.02,Wunderground v.1.15,2013-01-13 02:07:00,
2013-01-12 21:12:00,42.0,38.4,30.11,WNW,286,0.0,0.0,87,0.00,,,0.02,Wunderground v.1.15,2013-01-13 02:12:00,
2013-01-12 21:17:00,42.0,38.4,30.10,WNW,286,0.0,0.0,87,0.00,,,0.02,Wunderground v.1.15,2013-01-13 02:17:00,
2013-01-12 21:22:00,41.9,38.6,30.10,WNW,286,2.0,2.0,88,0.00,,,0.02,Wunderground v.1.15,2013-01-13 02:22:00,
2013-01-12 21:27:00,42.0,38.4,30.10,WNW,286,0.0,2.0,87,0.00,,,0.02,Wunderground v.1.15,2013-01-13 02:27:00,
2013-01-12 21:32:00,42.0,38.7,30.11,WNW,286,0.0,1.0,88,0.00,,,0.02,Wunderground v.1.15,2013-01-13 02:32:00,
2013-01-12 21:37:00,42.0,38.7,30.11,WNW,286,0.0,1.0,88,0.00,,,0.02,Wunderground v.1.15,2013-01-13 02:37:00,
2013-01-12 21:42:00,42.0,38.4,30.10,WNW,286,0.0,2.0,87,0.00,,,0.02,Wunderground v.1.15,2013-01-13 02:42:00,
2013-01-12 21:47:00,42.1,38.8,30.10,WNW,286,1.0,2.0,88,0.00,,,0.02,Wunderground v.1.15,2013-01-13 02:47:00,
2013-01-12 21:52:00,42.1,38.8,30.11,WNW,286,0.0,1.0,88,0.00,,,0.02,Wunderground v.1.15,2013-01-13 02:52:00,
2013-01-12 21:57:00,42.1,38.8,30.10,WNW,286,0.0,2.0,88,0.00,,,0.02,Wunderground v.1.15,2013-01-13 02:57:00,
2013-01-12 22:02:00,42.1,38.8,30.10,WNW,286,1.0,2.0,88,0.00,,,0.02,Wunderground v.1.15,2013-01-13 03:02:00,
2013-01-12 22:07:00,42.1,38.8,30.10,WNW,286,0.0,2.0,88,0.00,,,0.02,Wunderground v.1.15,2013-01-13 03:07:00,
2013-01-12 22:12:00,42.1,38.8,30.10,WNW,286,0.0,1.0,88,0.00,,,0.02,Wunderground v.1.15,2013-01-13 03:12:00,
2013-01-12 22:17:00,42.1,38.8,30.10,WNW,286,0.0,1.0,88,0.00,,,0.02,Wunderground v.1.15,2013-01-13 03:17:00,
2013-01-12 22:22:00,42.2,38.9,30.10,WNW,286,0.0,0.0,88,0.00,,,0.02,Wunderground v.1.15,2013-01-13 03:22:00,
2013-01-12 22:27:00,42.2,38.9,30.09,WNW,286,0.0,0.0,88,0.00,,,0.02,Wunderground v.1.15,2013-01-13 03:27:00,
2013-01-12 22:32:00,42.2,38.9,30.10,WNW,286,0.0,0.0,88,0.00,,,0.02,Wunderground v.1.15,2013-01-13 03:32:00,
2013-01-12 22:37:00,42.1,38.8,30.10,WNW,286,1.0,2.0,88,0.00,,,0.02,Wunderground v.1.15,2013-01-13 03:37:00,
2013-01-12 22:42:00,42.1,38.8,30.10,WNW,286,1.0,2.0,88,0.00,,,0.02,Wunderground v.1.15,2013-01-13 03:42:00,
2013-01-12 22:47:00,42.2,38.9,30.09,WNW,286,0.0,2.0,88,0.00,,,0.02,Wunderground v.1.15,2013-01-13 03:47:00,
2013-01-12 22:52:00,42.2,38.9,30.09,WNW,284,0.0,0.0,88,0.00,,,0.02,Wunderground v.1.15,2013-01-13 03:52:00,
2013-01-12 22:57:00,42.3,39.0,30.09,WNW,284,0.0,0.0,88,0.00,,,0.02,Wunderground v.1.15,2013-01-13 03:57:00,
2013-01-12 23:02:00,42.3,39.0,30.09,WNW,285,0.0,0.0,88,0.00,,,0.02,Wunderground v.1.15,2013-01-13 04:02:00,
2013-01-12 23:07:00,42.3,39.0,30.09,WNW,285,1.0,2.0,88,0.00,,,0.02,Wunderground v.1.15,2013-01-13 04:07:00,
2013-01-12 23:12:00,42.3,39.0,30.10,WNW,285,0.0,0.0,88,0.00,,,0.02,Wunderground v.1.15,2013-01-13 04:12:00,
2013-01-12 23:17:00,42.3,39.0,30.10,WNW,283,0.0,0.0,88,0.00,,,0.02,Wunderground v.1.15,2013-01-13 04:17:00,
2013-01-12 23:22:00,42.3,39.0,30.10,WNW,283,1.0,2.0,88,0.00,,,0.02,Wunderground v.1.15,2013-01-13 04:22:00,
2013-01-12 23:27:00,42.3,39.0,30.11,WNW,283,0.0,2.0,88,0.00,,,0.02,Wunderground v.1.15,2013-01-13 04:27:00,
2013-01-12 23:32:00,42.3,39.0,30.11,WNW,282,0.0,2.0,88,0.00,,,0.02,Wunderground v.1.15,2013-01-13 04:32:00,
2013-01-12 23:37:00,42.3,39.0,30.10,West,281,0.0,2.0,88,0.00,,,0.02,Wunderground v.1.15,2013-01-13 04:37:00,
2013-01-12 23:42:00,42.3,39.0,30.10,West,281,0.0,2.0,88,0.00,,,0.02,Wunderground v.1.15,2013-01-13 04:42:00,
2013-01-12 23:47:00,42.3,39.0,30.10,WNW,282,0.0,2.0,88,0.00,,,0.02,Wunderground v.1.15,2013-01-13 04:47:00,
2013-01-12 23:52:00,42.2,38.9,30.10,West,281,0.0,0.0,88,0.00,,,0.02,Wunderground v.1.15,2013-01-13 04:52:00,
2013-01-12 23:57:00,42.2,38.9,30.10,WNW,282,0.0,0.0,88,0.00,,,0.02,Wunderground v.1.15,2013-01-13 04:57:00,